NE1NH Weather Reports


time (UTC)temp
C
wind
direction
speed
KPH
gust
KPH
rain 1hr
cm
rain 24hr
cm
rain mn
cm
humidity
%
barometer
mb
20260901161523 18 352 0.0 3.2 0.03 0.51 0.51 92 1017.3
20260901161012 18 9 0.0 3.2 0.03 0.51 0.51 92 1017.2
20260901160514 18 136 1.6 4.8 0.03 0.51 0.51 92 1017.3
20260901160030 19 213 0.0 4.8 0.00 0.48 0.48 92 1017.3
20260901155513 19 189 0.0 3.2 0.00 0.48 0.48 93 1017.2
20260901155018 18 88 0.0 3.2 0.00 0.48 0.48 92 1017.1
20260901154530 18 121 0.0 3.2 0.00 0.48 0.48 92 1017.2
20260901154018 18 211 0.0 3.2 0.00 0.48 0.48 92 1017.3
20260901153518 18 46 0.0 3.2 0.00 0.48 0.48 92 1017.4
20260901153032 18 106 0.0 3.2 0.00 0.48 0.48 92 1017.5
20260901152508 18 21 0.0 3.2 0.00 0.48 0.48 92 1017.6
20260901152010 18 21 0.0 3.2 0.00 0.48 0.48 92 1017.7
20260901151524 18 250 0.0 1.6 0.00 0.48 0.48 92 1017.8
20260901151013 18 144 0.0 3.2 0.00 0.48 0.48 92 1017.8
20260901150514 18 143 0.0 3.2 0.00 0.48 0.48 92 1017.9
20260901150028 18 130 0.0 3.2 0.00 0.48 0.48 92 1017.8
20260901145514 18 299 0.0 4.8 0.00 0.48 0.48 92 1017.8
20260901145016 18 57 0.0 4.8 0.00 0.48 0.48 92 1017.8
20260901144537 18 117 0.0 3.2 0.00 0.48 0.48 93 1017.7
20260901144016 18 60 0.0 3.2 0.00 0.48 0.48 92 1017.8
20260901143514 18 52 0.0 4.8 0.03 0.48 0.48 92 1017.9
20260901143035 19 89 1.6 4.8 0.05 0.48 0.48 92 1017.9
20260901142518 19 197 0.0 4.8 0.05 0.48 0.48 92 1018.0
20260901142016 19 34 0.0 4.8 0.10 0.48 0.48 92 1017.9
20260901141519 18 319 0.0 3.2 0.13 0.48 0.48 93 1017.8
20260901141008 18 46 0.0 3.2 0.18 0.48 0.48 92 1017.8
20260901140512 18 64 0.0 4.8 0.23 0.48 0.48 92 1018.0
20260901140028 18 41 1.6 4.8 0.23 0.48 0.48 91 1018.2
20260901135512 18 49 0.0 3.2 0.23 0.48 0.48 91 1018.3
20260901135012 18 74 0.0 3.2 0.23 0.48 0.48 91 1018.1
20260901134528 18 20 0.0 0.0 0.23 0.48 0.48 91 1018.1
20260901134015 18 360 0.0 0.0 0.23 0.48 0.48 91 1018.1
20260901133515 18 352 0.0 0.0 0.20 0.46 0.46 91 1018.2
20260901133039 17 22 0.0 0.0 0.18 0.43 0.43 91 1018.3
20260901132516 17 22 0.0 0.0 0.20 0.43 0.43 91 1018.4
20260901132014 17 22 0.0 0.0 0.15 0.38 0.38 91 1018.5
20260901131514 17 22 0.0 0.0 0.13 0.36 0.36 91 1018.6
20260901131008 17 22 0.0 0.0 0.10 0.30 0.30 91 1018.5
20260901130508 17 22 0.0 0.0 0.10 0.25 0.25 91 1018.2
20260901130024 17 22 0.0 0.0 0.15 0.25 0.25 90 1018.2
20260901125511 17 22 0.0 0.0 0.20 0.25 0.25 90 1018.1
20260901125013 17 22 0.0 0.0 0.23 0.25 0.25 90 1018.1
20260901124527 17 22 0.0 0.0 0.23 0.25 0.25 90 1018.2
20260901124012 17 333 0.0 0.0 0.25 0.25 0.25 90 1018.2
20260901123517 17 15 0.0 0.0 0.25 0.25 0.25 90 1018.0
20260901123031 17 15 0.0 0.0 0.25 0.25 0.25 90 1017.8
20260901122516 17 15 0.0 0.0 0.23 0.23 0.23 90 1018.0
20260901122003 17 15 0.0 0.0 0.23 0.23 0.23 90 1018.1
20260901121518 17 15 0.0 0.0 0.23 0.23 0.23 90 1018.2
20260901121010 17 15 0.0 0.0 0.20 0.20 0.20 90 1018.2
20260901120511 17 15 0.0 0.0 0.15 0.15 0.15 90 1018.1
20260901120021 17 15 0.0 3.2 0.10 0.10 0.10 89 1018.1
20260901115508 17 15 0.0 3.2 0.05 0.05 0.05 89 1018.2
20260901115014 17 15 0.0 0.0 0.03 0.03 0.03 89 1018.4
20260901114526 17 15 0.0 0.0 0.03 0.03 0.03 89 1018.3
20260901114012 17 15 0.0 0.0 0.00 0.00 0.00 89 1018.2
20260901113515 17 15 0.0 0.0 0.00 0.00 0.00 89 1018.2
20260901113029 17 15 0.0 0.0 0.00 0.00 0.00 89 1018.2
20260901112515 17 15 0.0 0.0 0.00 0.00 0.00 89 1018.1
20260901112015 17 15 0.0 0.0 0.00 0.00 0.00 89 1018.0
20260901111533 17 15 0.0 0.0 0.00 0.00 0.00 89 1017.9
20260901111006 17 15 0.0 0.0 0.00 0.00 0.00 89 1017.9
20260901110507 17 15 0.0 3.2 0.00 0.00 0.00 89 1017.9
20260901110033 17 15 0.0 3.2 0.00 0.00 0.00 89 1017.8
20260901105508 17 15 0.0 3.2 0.00 0.00 0.00 88 1017.8
20260901105014 17 15 0.0 0.0 0.00 0.00 0.00 88 1017.8
20260901104526 17 15 0.0 0.0 0.00 0.00 0.00 88 1017.9
20260901104016 17 15 0.0 0.0 0.00 0.00 0.00 88 1017.9
20260901103511 17 15 0.0 0.0 0.00 0.00 0.00 88 1017.9
20260901103029 17 15 0.0 0.0 0.00 0.00 0.00 88 1017.9
20260901102514 17 15 0.0 0.0 0.00 0.00 0.00 88 1017.9
20260901102014 17 15 0.0 0.0 0.00 0.00 0.00 88 1017.7
20260901101512 17 15 0.0 0.0 0.00 0.00 0.00 88 1017.7
20260901101011 17 15 0.0 0.0 0.00 0.00 0.00 88 1017.8
20260901100507 17 15 0.0 0.0 0.00 0.00 0.00 88 1017.7
20260901100016 17 15 0.0 0.0 0.00 0.00 0.00 88 1017.7
20260901095508 18 15 0.0 0.0 0.00 0.00 0.00 88 1017.7
20260901095010 18 15 0.0 0.0 0.00 0.00 0.00 88 1017.7
20260901094528 18 15 0.0 0.0 0.00 0.00 0.00 88 1017.7
20260901094001 18 15 0.0 0.0 0.00 0.00 0.00 88 1017.7
20260901093501 18 15 0.0 3.2 0.00 0.00 0.00 87 1017.7
20260901093003 18 15 0.0 3.2 0.00 0.00 0.00 87 1017.7
20260901092504 18 15 0.0 1.6 0.00 0.00 0.00 87 1017.8
20260901092004 18 15 0.0 0.0 0.00 0.00 0.00 87 1017.9
20260901091512 18 15 0.0 0.0 0.00 0.00 0.00 87 1017.8
20260901091004 18 15 0.0 0.0 0.00 0.00 0.00 86 1017.9
20260901090506 18 15 0.0 0.0 0.00 0.00 0.00 86 1017.8
20260901090016 18 15 0.0 0.0 0.00 0.00 0.00 86 1017.8
20260901085512 18 15 0.0 1.6 0.00 0.00 0.00 86 1017.8
20260901085008 18 15 0.0 3.2 0.00 0.00 0.00 86 1017.8
20260901084523 18 15 0.0 3.2 0.00 0.00 0.00 86 1017.6
20260901084014 18 5 0.0 3.2 0.00 0.00 0.00 85 1017.8
20260901083512 18 57 0.0 3.2 0.00 0.00 0.00 85 1017.8
20260901083003 18 184 0.0 0.0 0.00 0.00 0.00 85 1017.8
20260901082503 18 183 0.0 1.6 0.00 0.00 0.00 85 1017.9
20260901082006 18 183 0.0 3.2 0.00 0.00 0.00 85 1018.0
20260901081509 18 183 0.0 3.2 0.00 0.00 0.00 85 1018.1
20260901081003 18 234 0.0 3.2 0.00 0.00 0.00 84 1018.1
20260901080503 18 234 0.0 0.0 0.00 0.00 0.00 84 1018.2
20260901080012 18 234 0.0 0.0 0.00 0.00 0.00 84 1018.3
20260901075504 18 234 0.0 0.0 0.00 0.00 0.00 84 1018.3
20260901075008 18 234 0.0 3.2 0.00 0.00 0.00 84 1018.3
20260901074520 18 234 0.0 3.2 0.00 0.00 0.00 84 1018.4
20260901074008 18 234 0.0 0.0 0.00 0.00 0.00 84 1018.5
20260901073512 18 234 0.0 0.0 0.00 0.00 0.00 84 1018.5
20260901073026 18 234 0.0 3.2 0.00 0.00 0.00 84 1018.5
20260901072512 18 289 0.0 3.2 0.00 0.00 0.00 84 1018.4
20260901072011 18 176 0.0 3.2 0.00 0.00 0.00 84 1018.3
20260901071507 18 269 0.0 3.2 0.00 0.00 0.00 84 1018.3
20260901071005 18 221 0.0 0.0 0.00 0.00 0.00 83 1018.4
20260901070504 18 221 0.0 0.0 0.00 0.00 0.00 84 1018.3
20260901070022 18 221 0.0 0.0 0.00 0.00 0.00 84 1018.5
20260901065506 18 231 0.0 3.2 0.00 0.00 0.00 84 1018.4
20260901065004 18 231 0.0 3.2 0.00 0.00 0.00 83 1018.4
20260901064516 18 234 0.0 1.6 0.00 0.00 0.00 83 1018.4
20260901064007 18 234 0.0 3.2 0.00 0.00 0.00 83 1018.5
20260901063507 18 210 0.0 3.2 0.00 0.00 0.00 83 1018.3
20260901063025 18 306 0.0 3.2 0.00 0.00 0.00 83 1018.4
20260901062512 18 306 0.0 3.2 0.00 0.00 0.00 83 1018.4
20260901062012 18 232 0.0 3.2 0.00 0.00 0.00 83 1018.5
20260901061527 18 232 0.0 3.2 0.00 0.00 0.00 83 1018.5
20260901061012 18 216 0.0 3.2 0.00 0.00 0.00 83 1018.5
20260901060501 18 216 0.0 3.2 0.00 0.00 0.00 83 1018.6
20260901060008 18 181 0.0 3.2 0.00 0.00 0.00 82 1018.6
20260901055505 18 207 0.0 3.2 0.00 0.00 0.00 82 1018.6
20260901055004 18 173 0.0 3.2 0.00 0.00 0.00 82 1018.6
20260901054514 18 261 0.0 0.0 0.00 0.00 0.00 82 1018.6
20260901054004 18 261 0.0 0.0 0.00 0.00 0.00 82 1018.6
20260901053509 18 286 0.0 3.2 0.00 0.00 0.00 81 1018.6
20260901053023 18 176 0.0 3.2 0.00 0.00 0.00 81 1018.6
20260901052510 18 227 0.0 0.0 0.00 0.00 0.00 81 1018.6
20260901052012 18 228 0.0 3.2 0.00 0.00 0.00 81 1018.7
20260901051530 18 284 0.0 3.2 0.00 0.00 0.00 81 1018.8
20260901051016 18 277 0.0 3.2 0.00 0.00 0.00 81 1018.8
20260901050513 18 269 0.0 3.2 0.00 0.00 0.00 81 1019.0
20260901050031 18 285 0.0 3.2 0.00 0.00 0.00 80 1018.9
20260901045513 18 311 0.0 0.0 0.00 0.00 0.00 80 1018.8
20260901045003 18 304 0.0 0.0 0.00 0.00 0.00 80 1018.8
20260901044512 18 304 0.0 0.0 0.00 0.00 0.00 80 1018.8
20260901044007 18 248 0.0 0.0 0.00 0.00 0.00 80 1018.8
20260901043504 18 288 0.0 0.0 0.00 0.00 0.00 79 1018.9
20260901043016 18 265 0.0 0.0 0.00 0.00 0.00 79 1019.1
20260901042507 18 221 0.0 0.0 0.00 0.00 0.00 79 1019.0
20260901042007 18 221 0.0 0.0 0.00 0.00 0.00 79 1019.1
20260901041526 18 221 0.0 4.8 0.00 0.00 0.00 79 1018.9
20260901041015 18 221 0.0 4.8 0.00 0.00 0.00 79 1018.9
20260901040512 18 225 0.0 3.2 0.00 0.00 0.00 78 1018.9
20260901040030 18 243 0.0 3.2 0.00 0.00 0.00 78 1018.9
20260901035521 18 222 0.0 3.2 0.00 0.00 0.00 78 1018.9
20260901035018 18 215 0.0 3.2 0.00 0.00 0.00 78 1019.1
20260901034528 19 263 0.0 4.8 0.00 0.00 0.00 77 1019.1
20260901034004 19 207 0.0 4.8 0.00 0.00 0.00 77 1019.0
20260901033505 19 219 0.0 3.2 0.00 0.00 0.00 77 1019.1
20260901033016 19 236 0.0 3.2 0.00 0.00 0.00 77 1019.2
20260901032508 19 226 0.0 3.2 0.00 0.00 0.00 76 1019.3
20260901032009 19 220 0.0 3.2 0.00 0.00 0.00 76 1019.3
20260901031520 19 221 0.0 3.2 0.00 0.00 0.00 76 1019.1
20260901031011 19 206 0.0 3.2 0.00 0.00 0.00 76 1019.1
20260901030514 19 206 0.0 4.8 0.00 0.00 0.00 75 1019.1
20260901030027 19 286 0.0 4.8 0.00 0.00 0.00 75 1019.1
20260901025512 19 236 0.0 4.8 0.00 0.00 0.00 75 1019.1
20260901025016 19 221 0.0 4.8 0.00 0.00 0.00 74 1019.0
20260901024530 20 138 0.0 4.8 0.00 0.00 0.00 74 1018.9
20260901024012 20 273 0.0 6.4 0.00 0.00 0.00 74 1018.9
20260901023514 20 277 0.0 6.4 0.00 0.00 0.00 73 1018.9
20260901023034 20 190 0.0 3.2 0.00 0.00 0.00 73 1018.9
20260901022504 20 248 0.0 3.2 0.00 0.00 0.00 73 1018.9
20260901022008 20 248 0.0 4.8 0.00 0.00 0.00 73 1018.9
20260901021519 20 250 0.0 4.8 0.00 0.00 0.00 73 1019.0
20260901021008 20 202 1.6 3.2 0.00 0.00 0.00 73 1019.0
20260901020507 20 220 0.0 3.2 0.00 0.00 0.00 73 1019.0
20260901020021 20 225 0.0 3.2 0.00 0.00 0.00 74 1019.1
20260901015512 20 126 0.0 6.4 0.00 0.00 0.00 74 1019.1
20260901015013 20 227 0.0 6.4 0.00 0.00 0.00 74 1019.2
20260901014529 20 189 0.0 3.2 0.00 0.00 0.00 74 1019.1
20260901014014 20 225 0.0 3.2 0.00 0.00 0.00 74 1019.1
20260901013516 20 214 0.0 3.2 0.00 0.00 0.00 74 1019.1
20260901013029 20 210 0.0 3.2 0.00 0.00 0.00 75 1019.1
20260901012515 20 209 0.0 3.2 0.00 0.00 0.00 75 1019.1
20260901012019 21 210 0.0 3.2 0.00 0.00 0.00 75 1019.2
20260901011512 21 265 0.0 4.8 0.00 0.00 0.00 75 1019.2
20260901011008 21 214 0.0 6.4 0.00 0.00 0.00 75 1019.1
20260901010507 21 197 0.0 6.4 0.00 0.00 0.00 75 1019.1
20260901010017 21 211 0.0 4.8 0.00 0.00 0.00 75 1019.1
20260901005511 21 219 0.0 3.2 0.00 0.00 0.00 75 1019.1
20260901005014 21 217 1.6 4.8 0.00 0.00 0.00 74 1019.1
20260901004526 21 190 0.0 4.8 0.00 0.00 0.00 74 1019.2
20260901004014 21 216 0.0 3.2 0.00 0.00 0.00 74 1019.1
20260901003514 21 290 0.0 3.2 0.00 0.00 0.00 73 1019.0
20260901003029 21 210 0.0 4.8 0.00 0.00 0.00 72 1019.0
20260901002520 21 233 0.0 4.8 0.00 0.00 0.00 72 1018.9
20260901002018 21 257 0.0 3.2 0.00 0.00 0.00 71 1018.9
20260901001533 21 258 0.0 3.2 0.00 0.00 0.00 71 1018.9
20260901001016 21 260 0.0 3.2 0.00 0.00 0.00 70 1018.8
20260901000508 21 259 0.0 3.2 0.00 0.00 0.00 69 1018.8
20260901000021 22 254 0.0 1.6 0.00 0.00 0.00 67 1018.8
20260831235510 22 225 0.0 3.2 0.00 0.00 0.00 67 1018.8
20260831235012 22 244 0.0 3.2 0.00 0.00 0.00 66 1018.9
20260831234535 22 228 0.0 0.0 0.00 0.00 0.00 66 1018.9
20260831234012 22 228 0.0 0.0 0.00 0.00 0.00 66 1018.9
20260831233517 22 228 0.0 0.0 0.00 0.00 0.00 66 1018.9
20260831233026 22 229 0.0 0.0 0.00 0.00 0.00 66 1018.9
20260831232512 22 228 0.0 0.0 0.00 0.00 0.00 65 1019.1
20260831232015 22 228 0.0 0.0 0.00 0.00 0.00 65 1019.1
20260831231533 22 228 0.0 0.0 0.00 0.00 0.00 64 1019.2
20260831231019 22 228 0.0 0.0 0.00 0.00 0.00 64 1019.2
20260831230518 22 228 0.0 0.0 0.00 0.00 0.00 64 1019.1
20260831230032 22 228 0.0 0.0 0.00 0.00 0.00 64 1019.1
20260831225524 22 228 0.0 0.0 0.00 0.00 0.00 63 1019.1
20260831225011 23 229 0.0 0.0 0.00 0.00 0.00 63 1019.1
20260831224522 23 228 0.0 0.0 0.00 0.00 0.00 63 1019.1
20260831224013 23 228 0.0 3.2 0.00 0.00 0.00 63 1019.1
20260831223512 23 228 0.0 3.2 0.00 0.00 0.00 63 1019.2
20260831223031 23 202 0.0 3.2 0.00 0.00 0.00 62 1019.2
20260831222514 23 238 0.0 1.6 0.00 0.00 0.00 62 1019.2
20260831222020 23 245 0.0 3.2 0.00 0.00 0.00 62 1019.3
20260831221528 23 244 0.0 3.2 0.00 0.00 0.00 62 1019.3
20260831221014 23 292 0.0 3.2 0.00 0.00 0.00 63 1019.3
20260831220514 23 292 0.0 3.2 0.00 0.00 0.00 63 1019.3
20260831220032 23 317 0.0 3.2 0.00 0.00 0.00 63 1019.3
20260831215514 23 250 0.0 1.6 0.00 0.00 0.00 62 1019.2
20260831215020 23 236 0.0 3.2 0.00 0.00 0.00 62 1019.3
20260831214542 23 227 0.0 3.2 0.00 0.00 0.00 62 1019.4
20260831214010 23 102 0.0 3.2 0.00 0.00 0.00 62 1019.3
20260831213512 23 208 0.0 3.2 0.00 0.00 0.00 62 1019.3
20260831213036 23 219 0.0 4.8 0.00 0.00 0.00 63 1019.2
20260831212513 23 327 0.0 4.8 0.00 0.00 0.00 62 1019.2
20260831212016 23 275 0.0 3.2 0.00 0.00 0.00 62 1019.2
20260831211527 23 241 0.0 4.8 0.00 0.00 0.00 61 1019.1
20260831211014 23 270 0.0 4.8 0.00 0.00 0.00 60 1019.2
20260831210515 23 300 0.0 4.8 0.00 0.00 0.00 61 1019.2
20260831210033 23 84 0.0 4.8 0.00 0.00 0.00 59 1019.1
20260831205517 23 69 0.0 4.8 0.00 0.00 0.00 61 1019.2
20260831205021 23 238 0.0 3.2 0.00 0.00 0.00 60 1019.3
20260831204534 23 186 0.0 3.2 0.00 0.00 0.00 60 1019.4
20260831204016 23 188 0.0 3.2 0.00 0.00 0.00 60 1019.4
20260831203517 24 164 0.0 3.2 0.00 0.00 0.00 57 1019.4
20260831203038 24 283 0.0 3.2 0.00 0.00 0.00 58 1019.3
20260831202511 23 279 0.0 3.2 0.00 0.00 0.00 59 1019.3
20260831202014 23 246 0.0 3.2 0.00 0.00 0.00 60 1019.3
20260831201528 23 237 0.0 3.2 0.00 0.00 0.00 59 1019.3
20260831201013 23 270 0.0 3.2 0.00 0.00 0.00 58 1019.3
20260831200515 24 142 0.0 3.2 0.00 0.00 0.00 55 1019.1
20260831200037 25 132 1.6 4.8 0.00 0.00 0.00 54 1018.9
20260831195513 25 36 0.0 4.8 0.00 0.00 0.00 56 1019.1
20260831195024 24 199 1.6 9.7 0.00 0.00 0.00 54 1019.2
20260831194531 25 219 3.2 9.7 0.00 0.00 0.00 53 1019.4
20260831194016 24 71 0.0 3.2 0.00 0.00 0.00 58 1019.4
20260831193519 24 336 0.0 3.2 0.00 0.00 0.00 56 1019.4
20260831193036 24 155 0.0 3.2 0.00 0.00 0.00 53 1019.6
20260831192517 25 84 0.0 3.2 0.00 0.00 0.00 52 1019.7
20260831192015 25 218 0.0 3.2 0.00 0.00 0.00 49 1019.7
20260831191524 26 205 0.0 3.2 0.00 0.00 0.00 50 1019.8
20260831191014 26 352 0.0 3.2 0.00 0.00 0.00 50 1019.9
20260831190513 26 176 0.0 3.2 0.00 0.00 0.00 48 1020.0
20260831190045 26 291 0.0 3.2 0.00 0.00 0.00 48 1020.0
20260831185514 26 317 1.6 3.2 0.00 0.00 0.00 48 1020.0
20260831185014 26 220 0.0 3.2 0.00 0.00 0.00 49 1019.9
20260831184532 26 232 0.0 3.2 0.00 0.00 0.00 49 1020.0
20260831184018 26 281 0.0 3.2 0.00 0.00 0.00 48 1019.9
20260831183521 26 325 0.0 3.2 0.00 0.00 0.00 49 1020.1
20260831183037 26 36 1.6 3.2 0.00 0.00 0.00 49 1020.1
20260831182508 26 156 0.0 3.2 0.00 0.00 0.00 50 1020.3
20260831182007 26 107 0.0 3.2 0.00 0.00 0.00 49 1020.3
20260831181520 25 109 0.0 3.2 0.00 0.00 0.00 47 1020.3
20260831181011 25 110 0.0 3.2 0.00 0.00 0.00 50 1020.5
20260831180510 25 183 0.0 3.2 0.00 0.00 0.00 51 1020.5
20260831180020 25 316 1.6 3.2 0.00 0.00 0.00 52 1020.5
20260831175507 25 105 0.0 3.2 0.00 0.00 0.00 51 1020.5
20260831175006 25 186 1.6 3.2 0.00 0.00 0.00 51 1020.6
20260831174514 24 74 0.0 3.2 0.00 0.00 0.00 53 1020.6
20260831174009 24 13 0.0 1.6 0.00 0.00 0.00 55 1020.7
20260831173511 24 113 0.0 3.2 0.00 0.00 0.00 56 1020.9
20260831173015 24 119 0.0 3.2 0.00 0.00 0.00 54 1021.0
20260831172507 24 118 0.0 4.8 0.00 0.00 0.00 54 1020.9
20260831172007 24 118 0.0 4.8 0.00 0.00 0.00 55 1020.9
20260831171524 23 98 1.6 4.8 0.00 0.00 0.00 55 1020.9
20260831171008 23 40 0.0 3.2 0.00 0.00 0.00 57 1020.9
20260831170512 23 296 0.0 3.2 0.00 0.00 0.00 58 1020.8
20260831170032 23 236 0.0 3.2 0.00 0.00 0.00 58 1021.0
20260831165514 23 219 0.0 3.2 0.00 0.00 0.00 56 1021.1
20260831165009 23 316 0.0 3.2 0.00 0.00 0.00 53 1021.1
20260831164521 22 56 0.0 3.2 0.00 0.00 0.00 60 1021.3
20260831164004 21 63 0.0 3.2 0.00 0.00 0.00 61 1021.3
20260831163505 21 63 0.0 3.2 0.00 0.00 0.00 59 1021.1
20260831163013 22 53 0.0 3.2 0.00 0.00 0.00 54 1021.2
20260831162510 21 49 0.0 3.2 0.00 0.00 0.00 58 1021.2
20260831162009 21 49 1.6 3.2 0.00 0.00 0.00 59 1021.4